Location: Doschendorf
(50.0069°N, 11.0602°E)
Time: 02:20:39
(UTC+00:00)

ATLAS 3B R/B - Pass Details

Date: 17 November 2019
Orbit: 1030 x 1165 km, 63.8° (Epoch: 03 December)

Event Time Altitude Azimuth Distance (km) Brightness Sun altitude
Rises 17:30:42 0° 303° (WNW) 3,790 6.4 -19.2°
Reaches altitude 10° 17:33:48 10° 316° (NW) 2,836 5.4 -19.7°
Maximum altitude 17:39:20 27° 13° (NNE) 1,886 3.8 -20.6°
Enters shadow 17:41:17 23° 39° (NE) 2,033 3.8 -20.9°
